This is the latest recevied weather packets stored in our database for station/object VE6EN. If no packets are shown the sender has not sent any weather packets the latest 10 day(s).
| Time | Temp. | Humidity | Pressure | Rain* | Wind** | Luminosity | Snow |
|---|---|---|---|---|---|---|---|
| 1787561403 | 13.33° C | 71% | 1015.2 hPa | 0 mm | - | - | - |
| 1787560805 | 13.33° C | 71% | 1015 hPa | 0 mm | - | - | - |
| 1787560204 | 13.33° C | 71% | 1015 hPa | 0 mm | - | - | - |
| 1787559600 | 13.33° C | 71% | 1014.9 hPa | 0 mm | - | - | - |
| 1787559000 | 13.33° C | 71% | 1014.9 hPa | 0 mm | - | - | - |
| 1787558409 | 13.33° C | 71% | 1014.8 hPa | 0 mm | - | - | - |
| 1787557804 | 13.33° C | 72% | 1014.7 hPa | 0 mm | - | - | - |
| 1787557204 | 13.33° C | 73% | 1014.8 hPa | 0 mm | - | - | - |
| 1787556603 | 13.33° C | 73% | 1014.7 hPa | 0 mm | - | - | - |
| 1787556001 | 13.33° C | 73% | 1014.7 hPa | 0 mm | - | - | - |
| 1787555400 | 12.78° C | 75% | 1014.6 hPa | 0 mm | - | - | - |
| 1787554802 | 11.67° C | 79% | 1014.5 hPa | 0 mm | - | - | - |
| 1787554203 | 11.11° C | 81% | 1014.4 hPa | 0 mm | - | - | - |
| 1787553603 | 11.11° C | 81% | 1014.2 hPa | 0 mm | - | - | - |
| 1787553013 | 11.11° C | 81% | 1014 hPa | 0 mm | - | - | - |
| 1787552404 | 11.67° C | 80% | 1013.9 hPa | 0 mm | - | - | - |
| 1787551808 | 11.67° C | 79% | 1013.8 hPa | 0 mm | - | - | - |
| 1787551206 | 11.67° C | 78% | 1013.9 hPa | 0 mm | - | - | - |
| 1787550604 | 11.67° C | 78% | 1013.9 hPa | 0 mm | - | - | - |
| 1787550008 | 11.67° C | 78% | 1014.1 hPa | 0 mm | - | - | - |
| 1787549405 | 11.67° C | 77% | 1014 hPa | 0 mm | - | - | - |
| 1787548805 | 12.22° C | 76% | 1013.9 hPa | 0 mm | - | - | - |
| 1787548215 | 12.22° C | 75% | 1013.9 hPa | 0 mm | - | - | - |
| 1787547607 | 12.22° C | 74% | 1013.9 hPa | 0 mm | - | - | - |
| 1787546404 | 12.78° C | 73% | 1013.5 hPa | 0 mm | - | - | - |
* Rain latest hour (hover to see other rain measurements)
** Current wind speed in m/s (hover to see current wind gust speed)